Content
SEND FEEDBACK

Daily
Averages
Monthly
Summary
Mexico

LEONA VICARIO, QUINTANA ROO


Home > North America > Mexico > Quintana Roo
Elevation: 26 feet     Latitude: 20 59N     Longitude: 087 12W

WEATHER
 
SELECT A DAY
Number of Records: 167,956;   Date Range: 1/1/95 - 12/26/14
 
SHARE

PRINT THIS DATA

[ ← Previous Day ]
WEATHER ALMANAC - JUNE 19, 2013
[ Next Day → ]
[ °C ]   °F
Weather ElementAverageHighLow
Temperature83.9 °F87.8 °F (11:45 am)80.6 °F (1:45 am)
Dewpoint76.6 °F78.8 °F (1:45 am)75.2 °F (11:45 am)
Humidity79.2 %94 % (1:45 am)66 % (11:45 am)
Barometer29.96 in30.00 in (10:44 pm)29.91 in (3:46 am)
Wind Speed9.7 mph16.1 mph (11:45 am)
Weather ElementAverage
Visibility6.5 mi
Wind DirectionE (93.9 °)

Weather ElementTotal
Precipitation---
Cooling Degree Days19.2 (Base 65)
Growing Degree Days34.2 (Base 50)
Averaged from 23 records on June 19, 2013
WEATHER CONDITIONS BREAKOUT
WIND DIRECTION BREAKOUT
WEATHER BY HOUR - JUNE 19, 2013
[ °C ]   °F
Local TimeTemperatureDewpointHumidityBarometerVisibilityWind DirectionWind SpeedGust SpeedPrecipitationEventsConditions
1:45 AM80.6 °F78.8 °F94 %29.94 in7.0 miESE (110°)11.5 mphOvercast
2:43 AM80.6 °F77.0 °F89 %29.93 in7.0 miESE (110°)9.2 mphOvercast
3:46 AM80.6 °F77.0 °F89 %29.91 in7.0 miESE (110°)9.2 mphMostly Cloudy
4:45 AM80.6 °F77.0 °F89 %29.93 in7.0 miESE (120°)6.9 mphScattered Clouds
5:44 AM80.6 °F77.0 °F89 %29.95 in7.0 miESE (110°)8.1 mphScattered Clouds
6:43 AM82.4 °F77.0 °F84 %29.94 in6.0 miENE (70°)8.1 mphOvercast
7:43 AM84.2 °F77.0 °F79 %29.98 in6.0 miESE (110°)9.2 mphMostly Cloudy
8:46 AM86.0 °F77.0 °F74 %29.98 in6.0 miEast (90°)6.9 mphMostly Cloudy
9:49 AM86.0 °F77.0 °F74 %29.99 in6.0 miENE (70°)11.5 mphMostly Cloudy
10:46 AM84.2 °F77.0 °F79 %29.99 in6.0 miENE (70°)12.7 mphMostly Cloudy
11:45 AM87.8 °F75.2 °F66 %29.99 in6.0 miEast (90°)16.1 mphScattered Clouds
12:48 PM87.8 °F75.2 °F66 %29.98 in6.0 miESE (120°)15.0 mphScattered Clouds
1:45 PM87.8 °F75.2 °F66 %29.95 in6.0 miEast (100°)11.5 mphScattered Clouds
2:42 PM87.8 °F75.2 °F66 %29.93 in7.0 miEast (90°)11.5 mphScattered Clouds
3:41 PM86.0 °F75.2 °F70 %29.93 in7.0 miEast (90°)11.5 mphScattered Clouds
4:41 PM86.0 °F75.2 °F70 %29.91 in7.0 miEast (80°)12.7 mphScattered Clouds
5:41 PM84.2 °F77.0 °F79 %29.92 in7.0 miENE (70°)9.2 mphScattered Clouds
6:46 PM84.2 °F77.0 °F79 %29.93 in7.0 miESE (110°)6.9 mphScattered Clouds
7:41 PM82.4 °F77.0 °F84 %29.95 in7.0 miEast (90°)8.1 mphScattered Clouds
8:41 PM82.4 °F77.0 °F84 %29.97 in7.0 miEast (90°)6.9 mphScattered Clouds
9:46 PM82.4 °F77.0 °F84 %29.98 in6.0 miEast (100°)8.1 mphMostly Cloudy
10:44 PM82.4 °F77.0 °F84 %30.00 in6.0 miEast (90°)5.8 mphMostly Cloudy
11:41 PM82.4 °F77.0 °F84 %30.00 in6.0 miENE (70°)5.8 mphMostly Cloudy
Hourly data recorded from MMUN, located miles away from Leona Vicario, Quintana Roo







STORIES FROM OUR PARTNERS